1998-067PP

Last updated on Mon Mar 15 2021 00:02:09 GMT+0000 (Coordinated Universal Time)

1 43639U 98067PP 21073.23514490 .07401480 12285-4 69672-3 0 9995 2 43639 51.6155 344.9209 0007122 243.2692 116.7605 16.37729371139455

Satellite not in orbit